www.pogodaiklimat.ru

Погода и климат >> Архив погоды >> Украина >> Комсомольское


ПОГОДА в Комсомольском

  • Прогноз погоды в Комсомольском
  • Монитор погоды в Комсомольском

АРХИВ ПОГОДЫ в Комсомольском

Время (UTC), дата Ветер
(напр.,м/с)
 
Видим.   Явления Облачность Т
(С)
Тd
(С)
f
(%)
Тe
(С)
Тes
(С)
Комфортность P
(гПа)
Po
(гПа)
Тmin
(С)
Tmax
(С)
R
(мм)
R24
(мм)
S
(см)
12 19.06 СВ 4 10 км 3/3 1000 м
[Cu med, cong]
+30.5 +12.8 34 +32 +38 жарко 1013.0 1002.7
18 19.06 СВ 2 10 км ясно +25.9 +14.3 49 +28 +28 жарко 1013.5 1003.0 +31.1
21 19.06 С 2 10 км ясно +22.6 +14.3 59 +26 +26 жарко 1014.3 1003.7
00 20.06 штиль 0 10 км ясно +18.8 +14.7 77 +20 +20 1015.0 1004.2
03 20.06 штиль 0 10 км ясно +18.3 +14.5 79 +19 +20 1015.7 1004.9
06 20.06 В 2 10 км 1/0
[Ci fib]
+26.6 +12.9 43 +28 +38 жарко 1015.4 1004.9 +16.5
09 20.06 В 3 10 км 6/4 1000 м
[Cu hum Ci fib]
+29.8 +8.9 27 +29 +37 жарко 1014.7 1004.3
12 20.06 В 3 10 км 5/4 1000 м
[Sc diur, vesp Ci fib]
+30.5 +8.8 26 +30 +36 жарко 1014.3 1004.0
15 20.06 СВ 3 10 км 6/3 1000 м
[Cu hum Ci fib]
+31.1 +9.0 25 +30 +32 жарко 1013.8 1003.5
18 20.06 СВ 1 10 км 3/0
[Ac trans Ci fib]
+26.3 +11.8 40 +28 +28 жарко 1014.4 1003.9 +32.0
21 20.06 СВ 1 10 км ясно +21.5 +11.4 53 +24 +24 комфорт 1015.2 1004.5
00 21.06 штиль 0 10 км 3/0
[Ci fib]
+17.5 +11.4 67 +18 +18 1016.3 1005.5
03 21.06 штиль 0 10 км 9/9 1000 м
[Sc]
+17.9 +13.3 74 +18 +18 1017.0 1006.2
06 21.06 СВ 2 10 км 8/0
[Ac As]
+25.7 +13.6 47 +28 +32 жарко 1017.0 1006.5 +16.6
09 21.06 В 3 10 км 5/5 1000 м
[Sc diur, vesp]
+31.0 +7.0 22 +30 +37 жарко 1016.3 1006.0
12 21.06 В 2 10 км 3/3 1000 м
[Cu hum]
+32.8 +8.8 23 +32 +41 жарко 1015.6 1005.3
15 21.06 В 2 10 км 3/3 1000 м
[Cu hum]
+31.9 +9.5 25 +31 +34 жарко 1015.0 1004.7
18 21.06 В 1 10 км ясно +27.9 +13.2 40 +30 +30 жарко 1015.0 1004.6 +33.8
21 21.06 штиль 0 10 км 1/0
[Ac trans]
+21.8 +13.7 60 +25 +25 комфорт 1016.5 1005.8
00 22.06 штиль 0 10 км 3/0
[Ac trans]
+18.6 +12.9 69 +19 +19 1016.9 1006.1
03 22.06 штиль 0 10 км ясно +18.6 +14.2 76 +19 +21 1017.2 1006.4
06 22.06 ЮВ 2 10 км ясно +28.5 +12.9 38 +30 +39 жарко 1016.9 1006.5 +17.4
09 22.06 В 3 10 км 3/3 1000 м
[Sc diur, vesp]
+33.7 +9.3 22 +32 +43 жарко 1016.5 1006.2
12 22.06 ЮВ 2 10 км 9/3 1000 м
[Sc diur, vesp Ci fib]
+34.3 +7.2 19 +32 +40 жарко 1015.9 1005.7
15 22.06 ЮВ 3 10 км 9/3 600 м
[Cb calv Ac lent Ci fib]
+32.7 +10.6 26 +32 +33 жарко 1015.4 1005.1
18 22.06 штиль 0 10 км 4/1 1000 м
[Sc diur, vesp Ci fib]
+28.3 +15.4 45 +31 +31 душно 1015.6 1005.2 +35.0
21 22.06 штиль 0 10 км 3/0
[Ci fib]
+22.5 +13.5 57 +26 +26 жарко 1016.2 1005.6
00 23.06 штиль 0 10 км 10/0
[As trans]
+20.0 +13.7 67 +22 +22 комфорт 1016.6 1005.9
03 23.06 СЗ 1 10 км 10/10 1000 м
[Sc]
+21.0 +14.3 66 +25 +25 комфорт 1016.8 1006.1
06 23.06 ЮВ 1 10 км 10/10 1000 м
[Sc]
+28.3 +12.4 37 +29 +29 жарко 1016.4 1006.0 +19.4
09 23.06 Ю 2 10 км 8/8 1000 м
[Sc]
+32.7 +11.1 27 +33 +36 жарко 1015.4 1005.1
12 23.06 Ю 2 10 км 8/6 600 м
[Cb cap Ci fib]
+33.7 +9.3 22 +32 +37 жарко 1014.5 1004.3
18 23.06 С 2 10 км {ливн. осадки} 10/10 600 м
[Cb cap]
+26.9 +14.0 45 +29 +29 жарко 1014.6 1004.1 +35.6 0.0
00 24.06 СВ 1 10 км 10/10 1000 м
[Sc]
+25.2 +14.9 53 +28 +28 жарко 1014.8 1004.3
06 24.06 С 2 10 км 10/0
[Ac und]
+27.4 +13.8 43 +29 +32 жарко 1014.6 1004.2 +23.4
12 24.06 ЮВ 1 10 км 9/0
[Ac As Ci fib]
+32.0 +14.1 34 +34 +44 душно 1015.7 1005.4
18 24.06 С 1 10 км 9/4 600 м
[Cb cap Ac As]
+27.4 +17.7 55 +32 +32 очень
душно
1016.9 1006.4 +32.5
00 25.06 С 3 10 км 4/0
[Ac lent Ci]
+22.8 +17.3 71 +28 +28 душно 1018.7 1008.1
06 25.06 СВ 4 10 км 1/0
[Cc]
+24.7 +14.4 53 +27 +34 жарко 1020.8 1010.2 +20.9
12 25.06 СВ 5 10 км ясно +29.5 +9.5 29 +29 +36 жарко 1021.2 1010.8
18 25.06 СВ 2 10 км 3/0
[Ci fib]
+24.0 +7.1 34 +24 +24 комфорт 1023.1 1012.4 +30.2

 

Местоположение метеостанции Комсомольское (Донецкая область, Украина): широта 49.60 долгота 36.53 высота над уровнем моря 91 м.

В архиве по умолчанию представлена погода в Комсомольском за последнюю неделю. Архивные данные за месяц целиком и за предыдущие месяцы, начиная с января 2011 года, Вы можете получить, выбрав интересующий диапазон дат из раскрывающегося списка и нажав кнопку "Ввод!".


*Определитесь, кто Вы:
робот инопланетянин человек

Внимание! Время в таблицах - всемирное. Для получения местного времени необходимо прибавить поправку, которая равна 2 ч.

Смотрите также архив погоды в соседних городах и на ближайших метеорологических станциях:

Погода в Харькове (Харьковская область, Украина) (50 км)
Погода в Изюме (Харьковская область, Украина) (73 км)
Погода в Лозовой (Харьковская область, Украина) (79 км)
Погода в Великом Бурлуке (Харьковская область, Украина) (80 км)
Погода в Краснограде (Харьковская область, Украина) (82 км)
Погода в Купянске (Харьковская область, Украина) (84 км)
Погода в Золочеве (Львовская область, Украина) (88 км)
Погода в Коломаке (Харьковская область, Украина) (98 км)
Погода в Боходухове (Харьковская область, Украина) (98 км)
Погода в Александрополе (Днепропетровская область, Украина) (111 км)

Пояснения к столбцам:

Ветер - указаны скорость ветра в м/с - средняя за 10 мин, порывы в срок и между сроками (в фигурных скобках) и направление, откуда дует ветер: С - северный, СВ - северо-восточный, В - восточный, ЮВ - юго-восточный, Ю - южный, ЮЗ - юго-западный, З - западный, СЗ - северо-западный.
Видимость - горизонтальная дальность видимости в метрах или километрах. При видимости от 1 до 10 км при отсутствии осадков обычно наблюдается дымка, при ухудшении видимости до 1 км и менее - туман. В сухую погоду видимость может ухудшаться дымом, пылью или мглою.
Явления - указаны атмосферные явления, наблюдавшиеся в срок или в последний час перед сроком; фигурными скобками обозначены явления, наблюдавшиеся между сроками (за 1-3 часа до срока); квадратными скобками обозначены град или гололедные отложения с указанием их диаметра в мм.
Облачность - указаны через наклонную черту общая и нижняя облачность в баллах и высота нижней границы облаков в метрах; квадратными скобками обозначены формы облаков: Ci - перистые, Cs - перисто-слоистые, Cc - перисто-кучевые, Ac - высококучевые, As - высокослоистые, Sc - слоисто-кучевые, Ns - слоисто-дождевые, Cu - кучевые, Cb - кучево-дождевые. Подробнее классификацию облаков см. в Атласе облаков (PDF).
T - Температура воздуха - температура, измеренная на высоте 2 м над землей.
Td - Температура точки росы - температура, при понижении до которой содержащийся в воздухе водяной пар достигнет насыщения.
f - Относительная влажность воздуха - влажноcть воздуха, измеренная на высоте 2 м над землей.
Te - Эффективная температура - температура, которую ощущает одетый по сезону человек в тени. Характеристика душности погоды. При расчете учитывается влияние влажности воздуха и скорости ветра на теплоощущения человека.
Tes - Эффективная температура на солнце - температура, которую ощущает человек, с поправкой на солнечный нагрев. Характеристика знойности погоды. Зависит от высоты солнца над горизонтом, облачности и скорости ветра. Ночью, в пасмурную погоду, а также при ветре 12 м/с и более поправка равна нулю.
P - Атмосферное давление - приведенное к уровню моря атмосферное давление.
Po - Атмосферное давление - измеренное на уровне метеостанции атмосферное давление.
Tmin - Минимальная температура - минимум температуры воздуха на высоте 2 м над землей.
Tmax - Максимальная температура - максимум температуры воздуха на высоте 2 м над землей.
R - Количество осадков - Количество выпавших осадков за период времени, мм. При наведении курсора мыши на число - период времени, за который выпало указанное количество осадков.
R24 - Количество осадков - Количество выпавших осадков за 24 часа, мм.
S - Снежный покров - Высота снежного покрова, см. При наведении курсора мыши на число - состояние снежного покрова и степень покрытия местности в баллах.